Daviess Cnty AP, Washington,, IN

11:33 PM EST on November 19, 2019 (GMT -0500)
Daviess County

Weather History for KDCY - September, 2019

Change the Weather History Date:

Thursday, September 12, 2019

  Actual Average (KLWV) Record (KLWV)
Temperature  
Mean Temperature 80 °F -  
Max Temperature 91 °F 81 °F 93 °F (2019)
Min Temperature 68 °F 55 °F 46 °F (1993)
Cooling Degree Days 14    
Growing Degree Days 30 (Base 50)    
Moisture  
Dew Point 70 °F    
Average Humidity 79    
Maximum Humidity 100    
Minimum Humidity 48    
Precipitation  
Precipitation 0.00 in - - ()
Sea Level Pressure  
Sea Level Pressure 30.11 in    
Wind  
Wind Speed 3 mph (SW)    
Max Wind Speed 9 mph    
Max Gust Speed 16 mph    
Visibility 10 miles    
Events      
Averages and records for this station are not official NWS values.
T = Trace of Precipitation, MM = Missing Value Source: NWS Daily Summary

Daily Weather History Graph

Daily Weather History Graph

Search for Another Location

Airport or City:

Astronomy

Sep. 12, 2019 Rise Set
Actual Time 7:27 AM EDT 8:01 PM EDT
Civil Twilight 7:00 AM EDT 8:28 PM EDT
Nautical Twilight 6:28 AM EDT 9:00 PM EDT
Astronomical Twilight 5:56 AM EDT 9:32 PM EDT
Moon 7:44 PM EDT (9/12) 5:48 AM EDT (9/12)
Length of Visible Light 13h 28m
Length of Day
12h 34m
Waxing Gibbous, 98% of the Moon is Illuminated
Sep 12
Waxing Gibbous
Sep 14
Full
Sep 21
Last Quarter
Sep 28
New
Oct 5
First Quarter

Hourly Weather History & Observations

Time (EDT) Temp. Heat Index Dew Point Humidity Pressure Visibility Wind Dir Wind Speed Gust Speed Precip Events Conditions
12:15 AM 74.1 °F - 69.3 °F 85% 30.10 in 10.0 mi Calm Calm - N/A   Clear
12:35 AM 72.7 °F - 72.1 °F 98% 30.10 in 10.0 mi WSW 3.5 mph - N/A   Clear
12:55 AM 72.1 °F - 71.6 °F 98% 30.10 in 10.0 mi Calm Calm - N/A   Clear
1:15 AM 72.0 °F - 71.8 °F 99% 30.10 in 10.0 mi SW 3.5 mph - N/A   Clear
1:35 AM 73.9 °F - 70.3 °F 88% 30.10 in 10.0 mi SSW 4.6 mph - N/A   Clear
1:55 AM 73.2 °F - 68.4 °F 85% 30.10 in 10.0 mi Calm Calm - N/A   Clear
2:15 AM 71.6 °F - 71.4 °F 99% 30.10 in 10.0 mi Calm Calm - N/A   Clear
2:35 AM 71.1 °F - 70.9 °F 99% 30.10 in 10.0 mi Calm Calm - N/A   Clear
2:55 AM 69.1 °F - 68.9 °F 99% 30.10 in 10.0 mi Calm Calm - N/A   Clear
3:15 AM 69.4 °F - 69.1 °F 99% 30.10 in 10.0 mi Calm Calm - N/A   Clear
3:35 AM 70.3 °F - 70.0 °F 99% 30.10 in 10.0 mi Calm Calm - N/A   Clear
3:55 AM 69.4 °F - 69.3 °F 99% 30.10 in 10.0 mi Calm Calm - N/A   Clear
4:15 AM 70.7 °F - 70.3 °F 99% 30.10 in 10.0 mi Calm Calm - N/A   Clear
4:35 AM 70.0 °F - 69.8 °F 99% 30.11 in 10.0 mi Calm Calm - N/A   Clear
4:55 AM 70.0 °F - 69.6 °F 99% 30.11 in 10.0 mi ESE 3.5 mph - N/A   Clear
5:15 AM 69.8 °F - 69.6 °F 99% 30.12 in 10.0 mi SE 3.5 mph - N/A   Clear
5:35 AM 69.1 °F - 68.9 °F 99% 30.12 in 10.0 mi SSE 3.5 mph - N/A   Clear
5:55 AM 69.4 °F - 69.1 °F 99% 30.12 in 10.0 mi SSE 4.6 mph - N/A   Clear
6:15 AM 69.8 °F - 69.3 °F 98% 30.13 in 7.0 mi SE 3.5 mph - N/A   Clear
6:55 AM 68.9 °F - 68.5 °F 99% 30.14 in 7.0 mi Calm Calm - N/A   Clear
7:15 AM 68.9 °F - 68.9 °F 100% 30.15 in 7.0 mi SE 3.5 mph - N/A   Clear
7:35 AM 69.4 °F - 69.1 °F 99% 30.16 in 7.0 mi SSE 3.5 mph - N/A   Clear
7:55 AM 69.8 °F - 69.4 °F 99% 30.16 in 7.0 mi Calm Calm - N/A   Clear
8:15 AM 70.9 °F - 70.7 °F 99% 30.17 in 7.0 mi SSE 3.5 mph - N/A   Mostly Cloudy
8:35 AM 72.1 °F - 72.0 °F 99% 30.17 in 10.0 mi SSE 4.6 mph - N/A   Mostly Cloudy
8:55 AM 74.5 °F - 73.4 °F 96% 30.16 in 10.0 mi SSE 3.5 mph - N/A   Scattered Clouds
9:15 AM 75.7 °F - 73.2 °F 92% 30.17 in 10.0 mi South 4.6 mph - N/A   Clear
9:35 AM 77.2 °F - 71.8 °F 83% 30.16 in 10.0 mi Calm Calm - N/A   Clear
9:55 AM 79.7 °F - 71.1 °F 75% 30.16 in 10.0 mi SSW 8.1 mph - N/A   Clear
10:15 AM 81.7 °F 85.4 °F 70.0 °F 68% 30.16 in 10.0 mi SW 6.9 mph - N/A   Clear
10:35 AM 82.8 °F 86.9 °F 70.5 °F 66% 30.15 in 10.0 mi WSW 8.1 mph - N/A   Clear
10:55 AM 83.8 °F 88.3 °F 70.7 °F 64% 30.15 in 10.0 mi WSW 6.9 mph - N/A   Clear
11:15 AM 84.6 °F 89.4 °F 70.9 °F 63% 30.15 in 10.0 mi West 6.9 mph - N/A   Clear
11:35 AM 85.1 °F 90.8 °F 71.8 °F 64% 30.15 in 10.0 mi WSW 4.6 mph - N/A   Clear
11:55 AM 86.5 °F 92.1 °F 71.2 °F 60% 30.15 in 10.0 mi West 8.1 mph - N/A   Clear
12:15 PM 86.7 °F 92.9 °F 71.6 °F 61% 30.15 in 10.0 mi WSW 6.9 mph - N/A   Clear
12:35 PM 87.4 °F 94.4 °F 72.3 °F 61% 30.15 in 10.0 mi WNW 4.6 mph - N/A   Clear
12:55 PM 88.9 °F 94.2 °F 70.5 °F 54% 30.14 in 10.0 mi SW 8.1 mph - N/A   Scattered Clouds
1:15 PM 88.5 °F 93.1 °F 69.3 °F 53% 30.14 in 10.0 mi WSW 8.1 mph - N/A   Scattered Clouds
1:35 PM 89.2 °F 94.5 °F 69.8 °F 53% 30.13 in 10.0 mi West 8.1 mph - N/A   Scattered Clouds
1:55 PM 89.2 °F 93.2 °F 68.5 °F 50% 30.13 in 10.0 mi WSW 6.9 mph 16.1 mph N/A   Clear
2:15 PM 90.1 °F 95.3 °F 69.6 °F 51% 30.12 in 10.0 mi WSW 9.2 mph - N/A   Scattered Clouds
2:35 PM 89.1 °F 93.3 °F 68.9 °F 51% 30.12 in 10.0 mi SW 8.1 mph - N/A   Clear
2:55 PM 89.8 °F 95.1 °F 70.2 °F 52% 30.12 in 10.0 mi West 5.8 mph - N/A   Clear
3:15 PM 91.4 °F 96.3 °F 69.1 °F 48% 30.11 in 10.0 mi SW 8.1 mph - N/A   Scattered Clouds
3:35 PM 89.6 °F 93.9 °F 68.9 °F 50% 30.10 in 10.0 mi West 9.2 mph - N/A   Scattered Clouds
3:55 PM 89.6 °F 93.0 °F 67.3 °F 48% 30.10 in 10.0 mi SW 5.8 mph - N/A   Scattered Clouds
4:15 PM 88.2 °F 92.1 °F 68.5 °F 52% 30.10 in 10.0 mi Calm Calm - N/A   Mostly Cloudy
4:35 PM 88.3 °F 92.4 °F 68.7 °F 52% 30.09 in 10.0 mi WSW 9.2 mph - N/A   Mostly Cloudy
4:55 PM 89.1 °F 93.3 °F 68.5 °F 51% 30.08 in 10.0 mi SW 5.8 mph - N/A   Mostly Cloudy
5:15 PM 88.3 °F 91.6 °F 67.8 °F 50% 30.08 in 10.0 mi WSW 6.9 mph - N/A   Scattered Clouds
5:55 PM 90.1 °F 94.0 °F 68.0 °F 48% 30.07 in 10.0 mi SW 6.9 mph - N/A   Scattered Clouds
6:15 PM 90.0 °F 94.1 °F 68.7 °F 49% 30.07 in 10.0 mi SSW 6.9 mph - N/A   Scattered Clouds
6:35 PM 89.4 °F 94.0 °F 68.9 °F 51% 30.08 in 10.0 mi SW 3.5 mph - N/A   Scattered Clouds
6:55 PM 87.3 °F 91.6 °F 69.4 °F 55% 30.07 in 10.0 mi WSW 5.8 mph - N/A   Scattered Clouds
7:15 PM 86.9 °F 91.7 °F 70.0 °F 57% 30.07 in 10.0 mi Calm Calm - N/A   Scattered Clouds
7:55 PM 81.5 °F 85.9 °F 71.8 °F 72% 30.06 in 10.0 mi Calm Calm - N/A   Clear
8:15 PM 78.1 °F - 70.9 °F 78% 30.07 in 10.0 mi Calm Calm - N/A   Clear
8:35 PM 76.3 °F - 71.2 °F 84% 30.07 in 10.0 mi Calm Calm - N/A   Clear
8:55 PM 76.5 °F - 70.7 °F 82% 30.07 in 10.0 mi Calm Calm - N/A   Clear
9:15 PM 75.0 °F - 70.7 °F 86% 30.08 in 10.0 mi Calm Calm - N/A   Clear
9:35 PM 74.7 °F - 70.0 °F 85% 30.10 in 10.0 mi Calm Calm - N/A   Clear
9:55 PM 73.6 °F - 72.0 °F 95% 30.09 in 10.0 mi Calm Calm - N/A   Clear
10:15 PM 72.7 °F - 72.3 °F 99% 30.10 in 10.0 mi Calm Calm - N/A   Clear
10:35 PM 72.7 °F - 72.5 °F 99% 30.08 in 10.0 mi Calm Calm - N/A   Clear
10:55 PM 72.9 °F - 72.5 °F 99% 30.10 in 10.0 mi South 3.5 mph - N/A   Clear
11:15 PM 72.9 °F - 72.5 °F 99% 30.10 in 10.0 mi South 3.5 mph - N/A   Clear
11:35 PM 72.5 °F - 72.1 °F 99% 30.11 in 10.0 mi South 3.5 mph - N/A   Clear
11:55 PM 73.4 °F - 73.4 °F 100% 30.11 in 10.0 mi South 3.5 mph - N/A   Clear